N11816 KTUL-KSGF

Flight info

Callsign N11816
Flight time 0h 46m
Altitude 17000
Route EOS
Aircraft TBM8/L-SDFGRWY/S

Departure

Time 2026-05-05 14:41
Airport Tulsa International Airport (KTUL)

Arrival

Time 2026-05-05 15:27
Airport Springfield Branson National Airport (KSGF)
Time Latitude Longitude Altitude Speed Heading
2026-05-05 14:28 36.20140 -95.89688 662 ft 0 kts 95°
2026-05-05 14:35 36.20139 -95.89685 662 ft 4 kts 111°
2026-05-05 14:36 36.20104 -95.89673 662 ft 1 kts 168°
2026-05-05 14:36 36.20064 -95.89659 662 ft 15 kts 163°
2026-05-05 14:36 36.19988 -95.89726 662 ft 10 kts 273°
2026-05-05 14:36 36.20012 -95.89785 662 ft 8 kts 273°
2026-05-05 14:37 36.19967 -95.89825 662 ft 11 kts 180°
2026-05-05 14:37 36.19880 -95.89836 662 ft 15 kts 183°
2026-05-05 14:37 36.19756 -95.89841 662 ft 20 kts 183°
2026-05-05 14:37 36.19604 -95.89855 662 ft 23 kts 181°
2026-05-05 14:38 36.19453 -95.89861 662 ft 18 kts 183°
2026-05-05 14:38 36.19314 -95.89869 662 ft 22 kts 182°
2026-05-05 14:38 36.19146 -95.89881 662 ft 23 kts 182°
2026-05-05 14:38 36.19057 -95.89928 662 ft 9 kts 259°
2026-05-05 14:39 36.19056 -95.89932 662 ft 0 kts 265°
2026-05-05 14:39 36.19057 -95.89939 662 ft 4 kts 273°
2026-05-05 14:39 36.19070 -95.90021 661 ft 11 kts 325°
2026-05-05 14:40 36.19169 -95.90016 661 ft 33 kts
2026-05-05 14:40 36.19597 -95.89985 663 ft 88 kts
2026-05-05 14:40 36.20327 -95.89945 776 ft 118 kts 12°
2026-05-05 14:40 36.21175 -95.89723 1084 ft 133 kts 20°
2026-05-05 14:41 36.22001 -95.89179 1539 ft 137 kts 44°
2026-05-05 14:41 36.22546 -95.88157 1925 ft 148 kts 64°
2026-05-05 14:41 36.23008 -95.87008 2435 ft 151 kts 65°
2026-05-05 14:41 36.23503 -95.85842 2917 ft 155 kts 61°
2026-05-05 14:42 36.24039 -95.84663 3380 ft 158 kts 62°
2026-05-05 14:42 36.24562 -95.83462 3942 ft 159 kts 63°
2026-05-05 14:42 36.25071 -95.82237 4480 ft 161 kts 64°
2026-05-05 14:42 36.25573 -95.80989 4997 ft 162 kts 66°
2026-05-05 14:43 36.26073 -95.79728 5522 ft 164 kts 66°
2026-05-05 14:43 36.26583 -95.78463 6049 ft 165 kts 65°
2026-05-05 14:43 36.27117 -95.77194 6496 ft 169 kts 64°
2026-05-05 14:43 36.27683 -95.75885 6905 ft 175 kts 63°
2026-05-05 14:44 36.28270 -95.74540 7329 ft 179 kts 63°
2026-05-05 14:44 36.28868 -95.73168 7779 ft 183 kts 62°
2026-05-05 14:44 36.29478 -95.71764 8199 ft 188 kts 62°
2026-05-05 14:44 36.30109 -95.70315 8600 ft 194 kts 62°
2026-05-05 14:45 36.30758 -95.68826 9013 ft 199 kts 62°
2026-05-05 14:45 36.31420 -95.67298 9449 ft 203 kts 62°
2026-05-05 14:45 36.32098 -95.65737 9862 ft 208 kts 62°
2026-05-05 14:45 36.32776 -95.64172 10283 ft 210 kts 62°
2026-05-05 14:46 36.33470 -95.62573 10718 ft 211 kts 62°
2026-05-05 14:46 36.34168 -95.60963 11145 ft 213 kts 61°
2026-05-05 14:46 36.34872 -95.59339 11574 ft 215 kts 61°
2026-05-05 14:46 36.35582 -95.57698 12009 ft 216 kts 61°
2026-05-05 14:47 36.36295 -95.56051 12439 ft 217 kts 60°
2026-05-05 14:47 36.37015 -95.54387 12873 ft 219 kts 60°
2026-05-05 14:47 36.37738 -95.52715 13350 ft 220 kts 60°
2026-05-05 14:47 36.38462 -95.51037 13761 ft 221 kts 60°
2026-05-05 14:48 36.39183 -95.49370 14127 ft 223 kts 60°
2026-05-05 14:48 36.39920 -95.47664 14499 ft 225 kts 59°
2026-05-05 14:48 36.40661 -95.45944 14872 ft 227 kts 59°
2026-05-05 14:48 36.41413 -95.44204 15252 ft 229 kts 59°
2026-05-05 14:49 36.42169 -95.42449 15619 ft 231 kts 59°
2026-05-05 14:49 36.42931 -95.40680 15982 ft 233 kts 59°
2026-05-05 14:49 36.43700 -95.38892 16349 ft 235 kts 58°
2026-05-05 14:49 36.44477 -95.37088 16713 ft 237 kts 58°
2026-05-05 14:50 36.45259 -95.35273 16941 ft 247 kts 58°
2026-05-05 14:50 36.46092 -95.33316 16988 ft 265 kts 59°
2026-05-05 14:50 36.46968 -95.31217 17004 ft 281 kts 59°
2026-05-05 14:50 36.47892 -95.29006 17008 ft 294 kts 59°
2026-05-05 14:51 36.48857 -95.26714 17006 ft 304 kts 59°
2026-05-05 14:51 36.49853 -95.24363 17008 ft 311 kts 59°
2026-05-05 14:51 36.50877 -95.21957 17011 ft 317 kts 59°
2026-05-05 14:51 36.51906 -95.19547 17019 ft 322 kts 59°
2026-05-05 14:52 36.52961 -95.17074 17022 ft 326 kts 59°
2026-05-05 14:52 36.54032 -95.14576 17023 ft 329 kts 59°
2026-05-05 14:52 36.55112 -95.12057 17023 ft 331 kts 59°
2026-05-05 14:52 36.56194 -95.09529 17018 ft 332 kts 59°
2026-05-05 14:53 36.57278 -95.06989 17022 ft 333 kts 59°
2026-05-05 14:53 36.58366 -95.04444 17019 ft 333 kts 59°
2026-05-05 14:53 36.59451 -95.01898 17020 ft 333 kts 59°
2026-05-05 14:53 36.60534 -94.99353 17015 ft 334 kts 59°
2026-05-05 14:54 36.61602 -94.96794 16759 ft 330 kts 60°
2026-05-05 14:54 36.62292 -94.95115 16589 ft 326 kts 60°
2026-05-05 14:54 36.63323 -94.92633 16333 ft 320 kts 60°
2026-05-05 14:54 36.64352 -94.90194 16076 ft 316 kts 60°
2026-05-05 14:55 36.65719 -94.86984 15766 ft 312 kts 60°
2026-05-05 14:55 36.66391 -94.85405 15604 ft 310 kts 60°
2026-05-05 14:55 36.67398 -94.83038 15357 ft 308 kts 60°
2026-05-05 14:55 36.68396 -94.80688 15115 ft 306 kts 61°
2026-05-05 14:56 36.69387 -94.78347 14869 ft 304 kts 61°
2026-05-05 14:56 36.70373 -94.76021 14617 ft 302 kts 61°
2026-05-05 14:56 36.71351 -94.73707 14378 ft 300 kts 62°
2026-05-05 14:56 36.72322 -94.71406 14148 ft 299 kts 62°
2026-05-05 14:57 36.73275 -94.69146 13914 ft 297 kts 62°
2026-05-05 14:57 36.74234 -94.66873 13683 ft 295 kts 62°
2026-05-05 14:57 36.75188 -94.64608 13444 ft 294 kts 63°
2026-05-05 14:57 36.76135 -94.62358 13205 ft 292 kts 63°
2026-05-05 14:58 36.77078 -94.60116 12948 ft 291 kts 63°
2026-05-05 14:58 36.78013 -94.57888 12699 ft 290 kts 63°
2026-05-05 14:58 36.78945 -94.55667 12454 ft 289 kts 62°
2026-05-05 14:58 36.79875 -94.53450 12208 ft 288 kts 62°
2026-05-05 14:59 36.80802 -94.51241 11970 ft 286 kts 63°
2026-05-05 14:59 36.81723 -94.49043 11709 ft 285 kts 63°
2026-05-05 14:59 36.82640 -94.46853 11465 ft 284 kts 63°
2026-05-05 14:59 36.83551 -94.44676 11223 ft 283 kts 63°
2026-05-05 15:00 36.84459 -94.42503 10978 ft 281 kts 63°
2026-05-05 15:00 36.85042 -94.41062 10818 ft 280 kts 64°
2026-05-05 15:00 36.86171 -94.38167 10501 ft 279 kts 65°
2026-05-05 15:00 36.87012 -94.35986 10270 ft 278 kts 65°
2026-05-05 15:01 36.87850 -94.33811 10034 ft 277 kts 65°
2026-05-05 15:01 36.88700 -94.31664 9807 ft 275 kts 65°
2026-05-05 15:01 36.89529 -94.29512 9568 ft 274 kts 65°
2026-05-05 15:01 36.90357 -94.27380 9318 ft 272 kts 65°
2026-05-05 15:02 36.91176 -94.25251 9120 ft 268 kts 65°
2026-05-05 15:02 36.91969 -94.23194 9110 ft 259 kts 65°
2026-05-05 15:02 36.92746 -94.21187 9047 ft 255 kts 65°
2026-05-05 15:02 36.93515 -94.19200 8802 ft 258 kts 65°
2026-05-05 15:03 36.94297 -94.17191 8557 ft 255 kts 65°
2026-05-05 15:03 36.95068 -94.15209 8315 ft 252 kts 65°
2026-05-05 15:03 36.95829 -94.13244 8069 ft 249 kts 65°
2026-05-05 15:03 36.96592 -94.11303 7827 ft 247 kts 65°
2026-05-05 15:04 36.97337 -94.09373 7585 ft 245 kts 66°
2026-05-05 15:04 36.98077 -94.07466 7339 ft 243 kts 66°
2026-05-05 15:04 36.98814 -94.05567 7109 ft 242 kts 66°
2026-05-05 15:04 36.99546 -94.03679 6920 ft 240 kts 66°
2026-05-05 15:05 37.01014 -93.99963 6449 ft 236 kts 62°
2026-05-05 15:05 37.02223 -93.98613 6193 ft 239 kts 24°
2026-05-05 15:05 37.03856 -93.98431 5919 ft 237 kts 355°
2026-05-05 15:06 37.05484 -93.98688 5664 ft 235 kts 352°
2026-05-05 15:06 37.07095 -93.99025 5407 ft 234 kts 350°
2026-05-05 15:06 37.08685 -93.99408 5180 ft 230 kts 349°
2026-05-05 15:06 37.10234 -93.99803 5066 ft 224 kts 350°
2026-05-05 15:07 37.11723 -94.00179 5020 ft 219 kts 351°
2026-05-05 15:07 37.13237 -94.00545 5000 ft 224 kts 351°
2026-05-05 15:07 37.14789 -94.00903 4996 ft 227 kts 352°
2026-05-05 15:07 37.16351 -94.01254 4996 ft 229 kts 352°
2026-05-05 15:08 37.17918 -94.01612 4998 ft 230 kts 352°
2026-05-05 15:08 37.19487 -94.02013 4993 ft 231 kts 350°
2026-05-05 15:08 37.21057 -94.02447 5002 ft 231 kts 350°
2026-05-05 15:08 37.22626 -94.02872 5002 ft 231 kts 351°
2026-05-05 15:09 37.24209 -94.03235 4995 ft 230 kts 356°
2026-05-05 15:09 37.25825 -94.03392 4804 ft 237 kts 360°
2026-05-05 15:09 37.27485 -94.03497 4553 ft 241 kts
2026-05-05 15:09 37.29138 -94.03600 4293 ft 241 kts
2026-05-05 15:10 37.30815 -94.03693 4035 ft 241 kts
2026-05-05 15:10 37.32483 -94.03798 3769 ft 239 kts
2026-05-05 15:10 37.34128 -94.03904 3617 ft 234 kts
2026-05-05 15:10 37.35730 -94.04015 3561 ft 228 kts
2026-05-05 15:11 37.37297 -94.04130 3534 ft 224 kts
2026-05-05 15:11 37.38840 -94.04236 3526 ft 221 kts
2026-05-05 15:11 37.40366 -94.04347 3547 ft 219 kts
2026-05-05 15:11 37.41891 -94.04469 3553 ft 219 kts
2026-05-05 15:12 37.43287 -94.04048 3551 ft 202 kts 42°
2026-05-05 15:12 37.43915 -94.02581 3528 ft 193 kts 84°
2026-05-05 15:12 37.44001 -94.00902 3513 ft 192 kts 88°
2026-05-05 15:12 37.44038 -93.99222 3506 ft 191 kts 89°
2026-05-05 15:13 37.44048 -93.97549 3503 ft 191 kts 90°
2026-05-05 15:13 37.44002 -93.95880 3504 ft 191 kts 98°
2026-05-05 15:13 37.43640 -93.94265 3554 ft 193 kts 105°
2026-05-05 15:13 37.43281 -93.92647 3598 ft 196 kts 103°
2026-05-05 15:14 37.42936 -93.90983 3640 ft 197 kts 104°
2026-05-05 15:14 37.42589 -93.89310 3625 ft 198 kts 104°
2026-05-05 15:14 37.42235 -93.87633 3625 ft 199 kts 104°
2026-05-05 15:14 37.41880 -93.85948 3584 ft 199 kts 104°
2026-05-05 15:15 37.41530 -93.84277 3524 ft 197 kts 104°
2026-05-05 15:15 37.41176 -93.82620 3504 ft 196 kts 104°
2026-05-05 15:15 37.40828 -93.80991 3496 ft 188 kts 104°
2026-05-05 15:15 37.40491 -93.79426 3482 ft 183 kts 103°
2026-05-05 15:16 37.40166 -93.77894 3503 ft 180 kts 104°
2026-05-05 15:16 37.39847 -93.76376 3526 ft 179 kts 104°
2026-05-05 15:16 37.39529 -93.74872 3527 ft 178 kts 103°
2026-05-05 15:16 37.39200 -93.73373 3508 ft 178 kts 108°
2026-05-05 15:17 37.38546 -93.72056 3511 ft 181 kts 131°
2026-05-05 15:17 37.37475 -93.71211 3513 ft 186 kts 155°
2026-05-05 15:17 37.36177 -93.70998 3501 ft 191 kts 177°
2026-05-05 15:17 37.34849 -93.71028 3498 ft 190 kts 173°
2026-05-05 15:18 37.33536 -93.70942 3507 ft 195 kts 171°
2026-05-05 15:18 37.32163 -93.70770 3512 ft 201 kts 170°
2026-05-05 15:18 37.30764 -93.70532 3499 ft 204 kts 167°
2026-05-05 15:18 37.29364 -93.70215 3483 ft 204 kts 165°
2026-05-05 15:19 37.27985 -93.69808 3486 ft 203 kts 161°
2026-05-05 15:19 37.26619 -93.69313 3474 ft 205 kts 158°
2026-05-05 15:19 37.25263 -93.68731 3480 ft 207 kts 156°
2026-05-05 15:19 37.23922 -93.68067 3471 ft 207 kts 153°
2026-05-05 15:20 37.22607 -93.67323 3480 ft 207 kts 152°
2026-05-05 15:20 37.21319 -93.66501 3496 ft 208 kts 149°
2026-05-05 15:20 37.20079 -93.65614 3500 ft 207 kts 145°
2026-05-05 15:20 37.18864 -93.64647 3530 ft 207 kts 143°
2026-05-05 15:21 37.17680 -93.63597 3581 ft 210 kts 141°
2026-05-05 15:21 37.16521 -93.62462 3610 ft 212 kts 140°
2026-05-05 15:21 37.15402 -93.61253 3629 ft 213 kts 136°
2026-05-05 15:21 37.14328 -93.59969 3677 ft 214 kts 134°
2026-05-05 15:22 37.13296 -93.58611 3632 ft 215 kts 131°
2026-05-05 15:22 37.12322 -93.57195 3569 ft 213 kts 129°
2026-05-05 15:22 37.11419 -93.55738 3538 ft 210 kts 126°
2026-05-05 15:22 37.10583 -93.54246 3522 ft 208 kts 123°
2026-05-05 15:23 37.09821 -93.52746 3497 ft 200 kts 121°
2026-05-05 15:23 37.09144 -93.51255 3492 ft 194 kts 118°
2026-05-05 15:23 37.08782 -93.49660 3483 ft 193 kts 89°
2026-05-05 15:23 37.09285 -93.48121 3490 ft 196 kts 54°
2026-05-05 15:24 37.10202 -93.46859 3499 ft 195 kts 50°
2026-05-05 15:24 37.11115 -93.45598 3500 ft 195 kts 47°
2026-05-05 15:24 37.12209 -93.44585 3504 ft 197 kts 34°
2026-05-05 15:24 37.13399 -93.43720 3441 ft 201 kts 32°
2026-05-05 15:25 37.14676 -93.42895 3163 ft 210 kts 26°
2026-05-05 15:25 37.16050 -93.42272 2888 ft 215 kts 21°
2026-05-05 15:25 37.17472 -93.41689 2597 ft 214 kts 22°
2026-05-05 15:25 37.18872 -93.41100 2285 ft 204 kts 18°
2026-05-05 15:26 37.20138 -93.40636 1994 ft 176 kts 22°
2026-05-05 15:26 37.21199 -93.40101 1772 ft 153 kts 23°
2026-05-05 15:26 37.22142 -93.39638 1645 ft 140 kts 23°
2026-05-05 15:26 37.22991 -93.39217 1451 ft 115 kts 27°
2026-05-05 15:27 37.23660 -93.38878 1296 ft 95 kts 25°
2026-05-05 15:27 37.24215 -93.38598 1274 ft 70 kts 20°
2026-05-05 15:27 37.24429 -93.38491 1270 ft 3 kts 26°
2026-05-05 15:27 37.24463 -93.38383 1270 ft 20 kts 111°
2026-05-05 15:28 37.24422 -93.38278 1269 ft 11 kts 112°
2026-05-05 15:28 37.24420 -93.38215 1269 ft 5 kts 28°
2026-05-05 15:28 37.24447 -93.38202 1269 ft 4 kts 21°
2026-05-05 15:28 37.24473 -93.38189 1270 ft 5 kts 21°
2026-05-05 15:29 37.24516 -93.38168 1271 ft 10 kts 21°
2026-05-05 15:29 37.24619 -93.38113 1272 ft 20 kts 22°
2026-05-05 15:29 37.24711 -93.38069 1271 ft 9 kts 24°
2026-05-05 15:29 37.24766 -93.38034 1272 ft 10 kts 27°
2026-05-05 15:30 37.24833 -93.38003 1272 ft 9 kts 10°
2026-05-05 15:30 37.24838 -93.37985 1272 ft 2 kts 118°
2026-05-05 15:30 37.24836 -93.37982 1272 ft 2 kts 117°
2026-05-05 15:30 37.24821 -93.37945 1271 ft 4 kts 116°